Regional Weather Roundup
Issued by NWS

Home | Current Version | Previous Version | Graphics & Text | Print | Product List | Glossary On
Versions: 1 2 3 4 5 6 7 8 9 10 11 12 13 14 15 16 17 18 19 20 21 22 23 24 25 26 27 28 29 30 31 32 33 34 35 36 37 38 39 40 41 42 43 44 45 46 47 48 49 50
000
ASUS43 KOAX 300702
RWRNE

WEATHER ROUNDUP FOR NEBRASKA
NATIONAL WEATHER SERVICE OMAHA NE
200 AM CDT THU MAR 30 2017

NOTES: SATELLITE DATA IS BEING USED TO AUGMENT CLOUD COVER ABOVE
       12000 FEET.
       "FAIR" INDICATES FEW OR NO CLOUDS BELOW 12,000 FEET WITH NO
       SIGNIFICANT WEATHER AND/OR OBSTRUCTIONS TO VISIBILITY.

  * THESE STATIONS DO NOT REPORT WEATHER SUCH AS RAIN...SNOW OR FOG.

NEZ001>004-019>022-054>056-300800-
NEBRASKA PANHANDLE

CITY           SKY/WX    TMP DP  RH WIND       PRES   REMARKS
SCOTTSBLUFF    CLEAR     35  32  88 NE5       29.92F WCI  31
ALLIANCE       CLEAR     29  28  96 W6        29.90F WCI  23
CHADRON        CLEAR     36  33  89 W6        29.91F WCI  31
KIMBALL        CLEAR     34  34 100 W8        29.94F WCI  27
SIDNEY         CLEAR     30  28  92 NW9       29.91F WCI  22
$$

NEZ057>060-069>072-079>082-300800-
SOUTHWEST NEBRASKA

CITY           SKY/WX    TMP DP  RH WIND       PRES   REMARKS
NORTH PLATTE   CLOUDY    40  34  79 N13       29.89F WCI  32
IMPERIAL       CLEAR     33  31  92 N9        29.89F WCI  25
LEXINGTON      CLOUDY    39  36  89 N15G22    29.85S WCI  30
MCCOOK         CLOUDY    41  38  89 N14       29.86F
OGALLALA       MOCLDY    37  35  94 NE6       29.91S WCI  32
$$

NEZ005>010-023>029-035>040-094-300800-
NORTH CENTRAL NEBRASKA

CITY           SKY/WX    TMP DP  RH WIND       PRES   REMARKS
VALENTINE      CLOUDY    39  35  86 NE3       29.93F
AINSWORTH      CLOUDY    37  36  99 NE6       29.92F WCI  32
BROKEN BOW     CLOUDY    38  34  85 N16G25    29.86F WCI  29
O`NEILL        CLOUDY    38  37  98 N8        29.90F WCI  32
ORD            CLOUDY    37  34  89 N14G23    29.85F WCI  28
THEDFORD       CLOUDY    40  35  82 N9        29.91F WCI  34
$$

NEZ041-046>049-061>064-073>077-083>087-300800-
SOUTH CENTRAL NEBRASKA

CITY           SKY/WX    TMP DP  RH WIND       PRES   REMARKS
GRAND ISLAND   CLOUDY    37  37 100 N18G25    29.80F WCI  27
AURORA         CLOUDY    38  38 100 N18G25    29.77F WCI  28
HASTINGS       CLOUDY    37  35  92 N23       29.78F WCI  26
HEBRON         LGT RAIN  40  39  97 N21G30    29.69F WCI  30
HOLDREGE       CLOUDY    38  36  92 N17G23    29.82S WCI  28
KEARNEY *      CLOUDY    37  34  87 N18       29.82F WCI  27
YORK           LGT RAIN  39  39 100 N22G29    29.76S WCI  29
$$

NEZ011>018-030>034-042>045-300800-
NORTHEAST NEBRASKA

CITY           SKY/WX    TMP DP  RH WIND       PRES   REMARKS
NORFOLK        CLOUDY    38  35  89 NE17      29.82F WCI  28
ALBION         CLOUDY    39  37  90 N13G18    29.83F WCI  32
BLAIR          CLOUDY    41  40  95 N16       29.73S
FREMONT        CLOUDY    41  40  99 NE10      29.77F
TEKAMAH        CLOUDY    42  38  85 N14       29.78S
WAYNE          CLOUDY    38  38  99 NE16G22   29.82F WCI  29
$$

NEZ050>053-065>068-078-088>093-300800-
SOUTHEAST NEBRASKA

CITY           SKY/WX    TMP DP  RH WIND       PRES   REMARKS
LINCOLN        CLOUDY    42  40  92 N21G28    29.73F
OMAHA EPPLEY   CLOUDY    44  39  82 N13       29.72F
BEATRICE       CLOUDY    43  43 100 N20G26    29.65S
FALLS CITY     CLOUDY    49  47  93 E18       29.59F
NEBRASKA CITY  CLOUDY    44  44 100 NE13      29.65F
PLATTSMOUTH    CLOUDY    43  40  86 N13       29.68S
$$

NEZ044-045-051>053-067-300800-
OMAHA AREA

CITY           SKY/WX    TMP DP  RH WIND       PRES   REMARKS
OMAHA EPPLEY   CLOUDY    44  39  82 N13       29.72F
BLAIR          CLOUDY    41  40  95 N16       29.73S
FREMONT        CLOUDY    41  40  99 NE10      29.77F
MILLARD        CLOUDY    45  42  89 N7        29.73S
OFFUTT AFB     CLOUDY    44  40  88 N13       29.69F
PLATTSMOUTH    CLOUDY    43  40  86 N13       29.68S
WAHOO          CLOUDY    41  39  93 N16       29.74F
$$




USA.gov is the U.S. government's official web portal to all federal, state and local government web resources and services.